When you browse on this site, cookies collect data to enhance your experience and personalize the content and advertising you see.
Visit our Privacy Policy to learn more. By continuing to use the site, you agree to this use of cookies and data.
  • In Hungary
  • List of Countries
  • For 7 days
  • Water Temperature
  • Weather Map
  • News
  • Weather Widgets
  • user-avatar
    Login

    Hourly Weather Lachi

    Today, 18 November, Monday

    Time Temperature Precipitation Wind Pressure Humidity
    00:00 +18°C° 0 mm 4 mps 752 mmHg 51%
    01:00 +18°C° 0 mm 4 mps 752 mmHg 51%
    02:00 +17°C° 0 mm 4 mps 752 mmHg 55%
    03:00 +17°C° 0 mm 4 mps 752 mmHg 56%
    04:00 +17°C° 0 mm 4 mps 752 mmHg 58%
    05:00 +17°C° 0 mm 4 mps 752 mmHg 59%
    06:00 +17°C° 0 mm 4 mps 752 mmHg 56%
    07:00 +18°C° 0 mm 4 mps 752 mmHg 54%
    08:00 +19°C° 0 mm 4 mps 753 mmHg 51%
    09:00 +20°C° 0 mm 5 mps 753 mmHg 45%
    10:00 +21°C° 0 mm 5 mps 753 mmHg 39%
    11:00 +22°C° 0 mm 6 mps 753 mmHg 32%
    12:00 +22°C° 0 mm 6 mps 753 mmHg 32%
    13:00 +22°C° 0 mm 5 mps 752 mmHg 31%
    14:00 +22°C° 0 mm 5 mps 752 mmHg 31%
    15:00 +21°C° 0 mm 5 mps 752 mmHg 35%
    16:00 +20°C° 0 mm 4 mps 752 mmHg 39%
    17:00 +19°C° 0 mm 3 mps 753 mmHg 42%
    18:00 +18°C° 0 mm 3 mps 753 mmHg 44%
    19:00 +17°C° 0 mm 2 mps 753 mmHg 45%
    20:00 +17°C° 0 mm 2 mps 753 mmHg 46%
    21:00 +17°C° 0 mm 2 mps 753 mmHg 46%
    22:00 +16°C° 0 mm 2 mps 753 mmHg 45%
    23:00 +16°C° 0 mm 2 mps 753 mmHg 45%

    Tomorrow, 19 November, Tuesday

    Time Temperature Precipitation Wind Pressure Humidity
    00:00 +16°C° 0 mm 2 mps 753 mmHg 45%
    01:00 +16°C° 0 mm 2 mps 753 mmHg 45%
    02:00 +16°C° 0 mm 2 mps 753 mmHg 46%
    03:00 +16°C° 0 mm 1 mps 753 mmHg 47%
    04:00 +15°C° 0 mm 1 mps 753 mmHg 48%
    05:00 +15°C° 0 mm 1 mps 753 mmHg 49%
    06:00 +16°C° 0 mm 1 mps 753 mmHg 48%
    07:00 +18°C° 0 mm 1 mps 753 mmHg 46%
    08:00 +19°C° 0 mm 1 mps 753 mmHg 45%
    09:00 +20°C° 0 mm 1 mps 754 mmHg 40%
    10:00 +21°C° 0 mm 1 mps 754 mmHg 35%
    11:00 +22°C° 0 mm 1 mps 754 mmHg 30%
    12:00 +23°C° 0 mm 1 mps 753 mmHg 29%
    13:00 +23°C° 0 mm 1 mps 753 mmHg 28%
    14:00 +23°C° 0 mm 1 mps 752 mmHg 27%
    15:00 +22°C° 0 mm 1 mps 752 mmHg 34%
    16:00 +21°C° 0 mm 1 mps 752 mmHg 40%
    17:00 +20°C° 0 mm 1 mps 752 mmHg 46%
    18:00 +19°C° 0 mm 1 mps 752 mmHg 48%
    19:00 +19°C° 0 mm 1 mps 753 mmHg 50%
    20:00 +18°C° 0 mm 1 mps 753 mmHg 52%
    21:00 +18°C° 0 mm 1 mps 753 mmHg 52%
    22:00 +18°C° 0 mm 1 mps 753 mmHg 52%
    23:00 +16°C° 0 mm 1 mps 753 mmHg 52%

    Day after tomorrow, 20 November, Wednesday

    Time Temperature Precipitation Wind Pressure Humidity
    00:00 +16°C° 0 mm 1 mps 752 mmHg 53%
    01:00 +16°C° 0 mm 1 mps 752 mmHg 54%
    02:00 +16°C° 0 mm 2 mps 752 mmHg 54%
    03:00 +16°C° 0 mm 2 mps 752 mmHg 56%
    04:00 +16°C° 0 mm 2 mps 752 mmHg 58%
    05:00 +16°C° 0 mm 2 mps 752 mmHg 60%
    06:00 +17°C° 0 mm 2 mps 752 mmHg 61%
    07:00 +17°C° 0 mm 2 mps 752 mmHg 61%
    08:00 +18°C° 0 mm 2 mps 753 mmHg 61%
    09:00 +19°C° 0 mm 2 mps 753 mmHg 57%
    10:00 +20°C° 0 mm 2 mps 753 mmHg 52%
    11:00 +23°C° 0 mm 2 mps 753 mmHg 48%
    12:00 +23°C° 0 mm 2 mps 752 mmHg 47%
    13:00 +23°C° 0 mm 2 mps 752 mmHg 45%
    14:00 +23°C° 0 mm 2 mps 752 mmHg 43%
    15:00 +21°C° 0 mm 2 mps 752 mmHg 49%
    16:00 +20°C° 0 mm 2 mps 752 mmHg 55%
    17:00 +19°C° 0 mm 2 mps 752 mmHg 61%
    18:00 +19°C° 0 mm 2 mps 752 mmHg 63%
    19:00 +18°C° 0 mm 2 mps 752 mmHg 65%
    20:00 +18°C° 0 mm 2 mps 752 mmHg 68%
    21:00 +18°C° 0 mm 3 mps 752 mmHg 68%
    22:00 +17°C° 0 mm 3 mps 752 mmHg 68%
    23:00 +17°C° 0 mm 3 mps 752 mmHg 69%

    21 November, Thursday

    Time Temperature Precipitation Wind Pressure Humidity
    00:00 +17°C° 0 mm 3 mps 752 mmHg 68%
    01:00 +17°C° 0 mm 3 mps 751 mmHg 67%
    02:00 +17°C° 0 mm 3 mps 751 mmHg 66%
    03:00 +16°C° 0 mm 3 mps 751 mmHg 66%
    04:00 +16°C° 0 mm 2 mps 751 mmHg 65%
    05:00 +16°C° 0 mm 2 mps 751 mmHg 64%
    06:00 +17°C° 0 mm 2 mps 751 mmHg 62%
    07:00 +17°C° 0 mm 2 mps 751 mmHg 60%
    08:00 +18°C° 0 mm 2 mps 751 mmHg 58%
    09:00 +19°C° 0 mm 2 mps 751 mmHg 54%
    10:00 +20°C° 0 mm 2 mps 751 mmHg 51%
    11:00 +21°C° 0 mm 2 mps 751 mmHg 48%
    12:00 +21°C° 0 mm 2 mps 750 mmHg 47%
    13:00 +21°C° 0 mm 2 mps 750 mmHg 46%
    14:00 +22°C° 0 mm 3 mps 750 mmHg 46%
    15:00 +21°C° 0 mm 2 mps 750 mmHg 52%
    16:00 +20°C° 0 mm 2 mps 750 mmHg 58%
    17:00 +19°C° 0 mm 2 mps 749 mmHg 65%
    18:00 +19°C° 0 mm 2 mps 750 mmHg 67%
    19:00 +19°C° 0 mm 1 mps 750 mmHg 69%
    20:00 +19°C° 0 mm 1 mps 750 mmHg 72%
    21:00 +18°C° 0 mm 1 mps 750 mmHg 72%
    22:00 +18°C° 0 mm 1 mps 750 mmHg 73%
    23:00 +18°C° 0 mm 1 mps 750 mmHg 73%

    22 November, Friday

    Time Temperature Precipitation Wind Pressure Humidity
    00:00 +18°C° 0 mm 1 mps 750 mmHg 73%
    01:00 +16°C° 0 mm 1 mps 750 mmHg 72%
    02:00 +16°C° 0 mm 1 mps 749 mmHg 72%
    03:00 +16°C° 0 mm 1 mps 749 mmHg 72%
    04:00 +16°C° 0 mm 1 mps 749 mmHg 71%
    05:00 +16°C° 0 mm 1 mps 749 mmHg 70%
    06:00 +18°C° 0 mm 1 mps 750 mmHg 68%
    07:00 +18°C° 0 mm 1 mps 750 mmHg 66%
    08:00 +19°C° 0 mm 1 mps 750 mmHg 64%
    09:00 +20°C° 0 mm 1 mps 750 mmHg 60%
    10:00 +21°C° 0 mm 1 mps 750 mmHg 57%
    11:00 +22°C° 0 mm 1 mps 750 mmHg 54%
    12:00 +21°C° 0 mm 2 mps 750 mmHg 53%
    13:00 +21°C° 0 mm 2 mps 749 mmHg 52%
    14:00 +21°C° 0 mm 2 mps 749 mmHg 51%
    15:00 +20°C° 0 mm 2 mps 749 mmHg 55%
    16:00 +20°C° 0 mm 2 mps 749 mmHg 60%
    17:00 +19°C° 0 mm 2 mps 749 mmHg 65%
    18:00 +19°C° 0 mm 2 mps 749 mmHg 67%
    19:00 +18°C° 0 mm 2 mps 750 mmHg 69%
    20:00 +18°C° 0 mm 2 mps 750 mmHg 71%
    21:00 +17°C° 0 mm 2 mps 750 mmHg 72%
    22:00 +17°C° 0 mm 2 mps 750 mmHg 73%
    23:00 +18°C° 0 mm 1 mps 750 mmHg 74%

    23 November, Saturday

    Time Temperature Precipitation Wind Pressure Humidity
    00:00 +16°C° 0 mm 2 mps 750 mmHg 74%
    01:00 +16°C° 0 mm 2 mps 750 mmHg 74%
    02:00 +16°C° 0 mm 2 mps 750 mmHg 73%
    03:00 +16°C° 0 mm 2 mps 750 mmHg 71%
    04:00 +16°C° 0 mm 2 mps 750 mmHg 69%
    05:00 +16°C° 0 mm 2 mps 750 mmHg 67%
    06:00 +16°C° 0 mm 2 mps 751 mmHg 63%
    07:00 +17°C° 0 mm 2 mps 751 mmHg 60%
    08:00 +18°C° 0 mm 3 mps 751 mmHg 56%
    09:00 +19°C° 0 mm 3 mps 751 mmHg 51%
    10:00 +20°C° 0 mm 4 mps 751 mmHg 47%
    11:00 +21°C° 0 mm 4 mps 752 mmHg 42%
    12:00 +21°C° 0 mm 4 mps 751 mmHg 41%
    13:00 +21°C° 0 mm 4 mps 751 mmHg 41%
    14:00 +21°C° 0 mm 4 mps 751 mmHg 40%
    15:00 +20°C° 0 mm 4 mps 751 mmHg 43%
    16:00 +19°C° 0 mm 3 mps 751 mmHg 46%
    17:00 +18°C° 0 mm 3 mps 751 mmHg 49%
    18:00 +18°C° 0 mm 3 mps 751 mmHg 52%
    19:00 +17°C° 0 mm 2 mps 751 mmHg 54%
    20:00 +17°C° 0 mm 2 mps 751 mmHg 56%
    21:00 +17°C° 0 mm 2 mps 751 mmHg 55%
    22:00 +17°C° 0 mm 2 mps 751 mmHg 55%
    23:00 +16°C° 0 mm 2 mps 751 mmHg 55%
    Show more